User: anonymous   Login
Location: Lourdes
(43.1000°N, 0.0500°W)
Time: 07:47:52
(UTC+00:00)
Language:

H-2A R/B - Orbit

View from above orbital plane
View from above orbital plane
View from above satellite
View from above satellite

Ground track
Ground track

The orbit data is extracted from the following two-line orbital elements,

1 27601U 02056E   21057.93760869 -.00000054  00000-0 -48406-5 0  9990
2 27601  98.2017  86.2467 0071184 238.8935 184.7635 14.31991101951118
Epoch (UTC): 26 February 2021 22:30:09
Eccentricity: 0.0071184
inclination: 98.2017°
perigee height: 734 km
apogee height: 836 km
right ascension of ascending node: 86.2467°
argument of perigee: 238.8935°
revolutions per day: 14.31991101
mean anomaly at epoch: 184.7635°
orbit number at epoch: 95111

The dashed part of the orbit path shows where the satellite is in the earth's shadow,  

DLR